Home   Weather   Bradenton   Past weeks

Flag for USA Past Weather in Bradenton, Florida, USA — Yesterday and Last 2 Weeks

Now
62 °F

Passing clouds.


Feels Like: 62 °F
Forecast: 56 / 63 °F
Wind: 9 mph from Northeast

Location: Sarasota-Bradenton International Airport

Current Time: Dec 9, 2016 at 3:03:38 am

Latest Report: Dec 9, 2016 at 1:53 am


Visibility: 10 mi

Pressure: 30.18 "Hg

Humidity: 70%

Dew Point: 52 °F

Location of BradentonLocation

Past Weather in Bradenton — Graph

°F

Bradenton Temperature Yesterday

Maximum temperature yesterday: 70 °F (at 1:53 pm)
Minimum temperature yesterday: 60 °F (at 1:53 am)
Average temperature yesterday: 64 °F

High & Low Weather Summary for the Past Weeks

 TemperatureHumidityPressure
High86 °F (Nov 24, 2:53 pm)100% (Dec 7, 12:00 am)30.24 "Hg (Dec 7, 12:00 am)
Low56 °F (Dec 3, 6:53 am)29% (Dec 2, 3:53 pm)29.86 "Hg (Dec 6, 4:00 am)
Average71 °F74%30.03 "Hg
* Reported Nov 24 1:53 am — Dec 9 1:53 am, Bradenton, Weather by CustomWeather, © 2016

Note: Actual official high and low records may vary slightly from our data, if they occured in-between our weather recording intervals... More about our weather records

Advertising

Bradenton Weather History for the Previous 24 Hours

Scroll right to see more
 ConditionsComfort  
Time TempWeatherWind HumidityBarometerVisibility
1:53 am
Fri, Dec 9
62 °FPassing clouds.9 mph70%30.18 "Hg10 mi
12:53 am63 °FPassing clouds.8 mph70%30.16 "Hg10 mi
11:53 pm
Thu, Dec 8
63 °FPassing clouds.9 mph75%30.19 "Hg10 mi
10:53 pm63 °FPassing clouds.10 mph78%30.18 "Hg10 mi
9:53 pm63 °FPassing clouds.9 mph75%30.16 "Hg10 mi
8:53 pm64 °FPassing clouds.12 mph75%30.14 "Hg10 mi
7:53 pm64 °FOvercast.7 mph70%30.15 "Hg10 mi
6:53 pm64 °FOvercast.7 mph68%30.15 "Hg10 mi
5:53 pm65 °FOvercast.5 mph61%30.12 "Hg10 mi
4:53 pm66 °FOvercast.7 mph63%30.10 "Hg10 mi
3:53 pm67 °FOvercast.8 mph68%30.09 "Hg10 mi
2:53 pm69 °FOvercast.10 mph63%30.09 "Hg10 mi
1:53 pm70 °FOvercast.6 mph59%30.09 "Hg10 mi
12:53 pm68 °FOvercast.10 mph63%30.11 "Hg10 mi
12:01 pm67 °FBroken clouds.10 mph68%30.15 "Hg10 mi
10:53 am65 °FOvercast.12 mph78%30.17 "Hg10 mi
9:53 am63 °FPartly sunny.9 mph87%30.17 "Hg10 mi
8:53 am64 °FPartly sunny.5 mph90%30.15 "Hg9 mi
7:53 am63 °FPassing clouds.5 mph90%30.11 "Hg8 mi
6:53 am62 °FPassing clouds.3 mph93%30.11 "Hg9 mi
5:53 am61 °FOvercast.No wind97%30.09 "Hg9 mi
4:53 am61 °FOvercast.No wind93%30.09 "Hg9 mi
3:53 am62 °FOvercast.No wind93%30.09 "Hg10 mi
Weather by CustomWeather, © 2016

See weather overviewHow to use our weather pages